Tracking 27401 objects as of 3-Jun-2023
HD Live streaming from Space Station
objects crossing your sky now

ONEWEB-0431

Track ONEWEB-0431 now!
10-day predictions
ONEWEB-0431 is classified as:


NORAD ID: 51630
Int'l Code: 2022-012J
Perigee: 1,227.8 km
Apogee: 1,229.9 km
Inclination: 87.9 °
Period: 109.9 minutes
Semi major axis: 7599 km
RCS: Unknown
Launch date: February 10, 2022
Source: United Kingdom (UK)
Launch site: FRENCH GUIANA (FRGUI)
Your satellite tracking list
Your tracking list is empty




NASA's NSSDC Master Catalog

Two Line Element Set (TLE):
1 51630U 22012J   23153.80237527  .00000373  00000-0  10321-2 0  9992
2 51630  87.8825 256.8022 0001380  83.1155 277.0129 13.10375694 63922
Source of the keplerian elements: AFSPC